Tracking 23610 objects as of 20-Sep-2021
HD Live streaming from Space Station
objects crossing your sky now

STARLINK-2513

Track STARLINK-2513 now!
10-day predictions
STARLINK-2513 is classified as:


NORAD ID: 48317
Int'l Code: 2021-036AT
Perigee: 553.5 km
Apogee: 555.3 km
Inclination: 53.1 °
Period: 95.6 minutes
Semi major axis: 6925 km
RCS: Unknown
Launch date: April 29, 2021
Source: United States (US)
Launch site: AIR FORCE EASTERN TEST RANGE (AFETR)
aabbcc
Your satellite tracking list
Your tracking list is empty




NASA's NSSDC Master Catalog

Two Line Element Set (TLE):
1 48317U 21036AT  21263.13083634  .00000731  00000-0  67954-4 0  9993
2 48317  53.0605 215.9614 0001311  50.0531 310.0573 15.06395189 22901
Source of the keplerian elements: AFSPC